Date String (YYYY-MM-DD hh:mm:ss) UTC,Instrument flags,absolute air pressure of the measurement (hPa),sample flow rate (lpm),inlet stack bypass flow (lpm),air temperature of the measurement (°C),ambient temperature measured by the external sensor (°C),aerosol sample conditioner tube jacket temperature (°C),OPC LED temperature (°C),internal box temperature (°C),relative humidity of the measurement (%),span deviation,mass concentration of particles derived from Lorenz-Mie calculation of OPC scattering (μg/m³),mass concentration of particles derived from Lorenz-Mie calculation of OPC scattering (μg/m³),mass concentration of particles derived from Lorenz-Mie calculation of OPC scattering (μg/m³)
DateTimeUTC,F1_M11,P_M11,Q1_M11,Q2_M11,T1_M11,T2_M11,T3_M11,T4_M11,T5_M11,U1_M11,ZSPAN_M11,X2_M11,X0_M11,X1_M11
2024-02-08 06:00:00,SystemResetWarning,0810.7,5.01,000.00,018.9,018.3,000.0,027.2,020.5,12.5,0000.0,0000.27,0001.26,0000.16
2024-02-08 06:01:00,SystemResetWarning,0810.7,5.00,000.00,018.9,018.3,000.0,027.2,020.5,12.6,0000.0,0000.29,0001.48,0000.16
2024-02-08 06:02:00,SystemResetWarning,0810.8,5.00,000.00,018.9,018.3,000.0,027.2,020.5,12.3,0000.0,0000.28,0001.46,0000.15
2024-02-08 06:03:00,SystemResetWarning,0810.8,5.00,000.00,018.9,018.3,000.0,027.2,020.4,12.5,0000.0,0000.29,0001.49,0000.15
2024-02-08 06:04:00,SystemResetWarning,0810.8,5.00,000.00,018.9,018.3,000.0,027.2,020.4,12.7,0000.0,0000.32,0001.11,0000.15
2024-02-08 06:05:00,SystemResetWarning,0810.8,5.00,000.00,018.9,018.3,000.0,027.2,020.4,12.8,0000.0,0000.32,0001.53,0000.15
2024-02-08 06:06:00,SystemResetWarning,0810.7,5.00,000.00,018.9,018.3,000.0,027.2,020.4,13.0,0000.0,0000.31,0001.85,0000.15
2024-02-08 06:07:00,SystemResetWarning,0810.8,5.00,000.00,018.9,018.3,000.0,027.2,020.5,13.1,0000.0,0000.30,0001.76,0000.15
2024-02-08 06:08:00,SystemResetWarning,0810.8,5.00,000.00,018.9,018.3,000.0,027.2,020.5,13.3,0000.0,0000.30,0001.75,0000.16
2024-02-08 06:09:00,SystemResetWarning,0810.8,5.00,000.00,018.9,018.3,000.0,027.2,020.5,12.9,0000.0,0000.30,0001.76,0000.16
2024-02-08 06:10:00,SystemResetWarning,0810.8,5.00,000.00,018.9,018.3,000.0,027.2,020.4,12.8,0000.0,0000.31,0001.77,0000.15
2024-02-08 06:11:00,SystemResetWarning,0810.7,4.99,000.00,018.9,018.3,000.0,027.2,020.5,13.0,0000.0,0000.31,0001.63,0000.16
2024-02-08 06:12:00,SystemResetWarning,0810.8,5.00,000.00,018.9,018.3,000.0,027.2,020.5,12.8,0000.0,0000.28,0001.35,0000.16
2024-02-08 06:13:00,SystemResetWarning,0810.8,5.01,000.00,018.9,018.3,000.0,027.2,020.5,12.5,0000.0,0000.28,0001.35,0000.16
2024-02-08 06:14:00,SystemResetWarning,0810.8,5.00,000.00,018.9,018.3,000.0,027.2,020.5,12.4,0000.0,0000.27,0001.33,0000.16
2024-02-08 06:15:00,SystemResetWarning,0810.8,5.00,000.00,018.9,018.3,000.0,027.2,020.5,12.2,0000.0,0000.23,0001.25,0000.15
2024-02-08 06:16:00,SystemResetWarning,0810.8,4.99,000.00,018.9,018.3,000.0,027.2,020.4,12.3,0000.0,0000.22,0000.79,0000.15
2024-02-08 06:17:00,SystemResetWarning,0810.8,5.00,000.00,018.9,018.3,000.0,027.2,020.5,12.5,0000.0,0000.20,0000.33,0000.14
2024-02-08 06:18:00,SystemResetWarning,0810.8,5.00,000.00,018.9,018.3,000.0,027.2,020.5,12.5,0000.0,0000.21,0000.35,0000.14
2024-02-08 06:19:00,SystemResetWarning,0810.8,5.00,000.00,018.9,018.3,000.0,027.2,020.4,12.6,0000.0,0000.21,0000.40,0000.13
2024-02-08 06:20:00,SystemResetWarning,0810.9,5.00,000.00,018.9,018.3,000.0,027.2,020.4,12.4,0000.0,0000.18,0000.35,0000.13
2024-02-08 06:21:00,SystemResetWarning,0810.9,5.00,000.00,018.9,018.3,000.0,027.2,020.4,12.7,0000.0,0000.17,0000.31,0000.13
2024-02-08 06:22:00,SystemResetWarning,0810.9,5.00,000.00,018.9,018.3,000.0,027.2,020.4,12.7,0000.0,0000.16,0000.31,0000.13
2024-02-08 06:23:00,SystemResetWarning,0810.9,5.00,000.00,018.9,018.3,000.0,027.2,020.4,12.7,0000.0,0000.17,0000.33,0000.13
2024-02-08 06:24:00,SystemResetWarning,0811.0,5.00,000.00,018.9,018.2,000.0,027.2,020.4,12.0,0000.0,0000.19,0000.36,0000.13
2024-02-08 06:25:00,SystemResetWarning,0810.9,5.00,000.00,018.9,018.2,000.0,027.2,020.4,12.1,0000.0,0000.19,0000.60,0000.13
2024-02-08 06:26:00,SystemResetWarning,0811.0,5.00,000.00,018.9,018.2,000.0,027.2,020.4,12.2,0000.0,0000.21,0001.76,0000.13
2024-02-08 06:27:00,SystemResetWarning,0811.0,5.00,000.00,018.9,018.2,000.0,027.2,020.4,12.1,0000.0,0000.21,0001.76,0000.13
2024-02-08 06:28:00,SystemResetWarning,0811.1,5.00,000.00,018.9,018.2,000.0,027.2,020.5,11.9,0000.0,0000.21,0001.77,0000.13
2024-02-08 06:29:00,SystemResetWarning,0811.0,5.00,000.00,018.9,018.3,000.0,027.2,020.5,11.9,0000.0,0000.21,0001.76,0000.13
2024-02-08 06:30:00,SystemResetWarning,0811.1,5.00,000.00,018.9,018.3,000.0,027.2,020.5,12.0,0000.0,0000.20,0001.68,0000.13
2024-02-08 06:31:00,SystemResetWarning,0811.0,4.99,000.00,018.9,018.3,000.0,027.2,020.5,12.4,0000.0,0000.20,0001.69,0000.13
2024-02-08 06:32:00,SystemResetWarning,0811.1,5.00,000.00,018.9,018.3,000.0,027.2,020.5,13.0,0000.0,0000.22,0001.73,0000.13
2024-02-08 06:33:00,SystemResetWarning,0811.1,5.00,000.00,018.9,018.3,000.0,027.2,020.5,12.4,0000.0,0000.23,0001.75,0000.13
2024-02-08 06:34:00,SystemResetWarning,0811.1,5.00,000.00,018.9,018.3,000.0,027.2,020.5,11.8,0000.0,0000.23,0001.73,0000.13
2024-02-08 06:35:00,SystemResetWarning,0811.1,5.01,000.00,018.9,018.3,000.0,027.2,020.5,12.2,0000.0,0000.22,0001.71,0000.13
2024-02-08 06:36:00,SystemResetWarning,0811.1,5.00,000.00,018.9,018.3,000.0,027.2,020.5,12.2,0000.0,0000.21,0001.70,0000.13
2024-02-08 06:37:00,SystemResetWarning,0811.1,5.00,000.00,018.9,018.3,000.0,027.2,020.5,12.3,0000.0,0000.20,0000.31,0000.13
2024-02-08 06:38:00,SystemResetWarning,0811.0,4.99,000.00,018.9,018.2,000.0,027.2,020.5,12.1,0000.0,0000.19,0000.30,0000.13
2024-02-08 06:39:00,SystemResetWarning,0811.0,5.00,000.00,018.9,018.3,000.0,027.2,020.5,12.1,0000.0,0000.20,0000.31,0000.13
2024-02-08 06:40:00,SystemResetWarning,0811.1,5.00,000.00,018.9,018.3,000.0,027.2,020.5,12.2,0000.0,0000.22,0000.39,0000.14
2024-02-08 06:41:00,SystemResetWarning,0811.1,5.01,000.00,018.9,018.2,000.0,027.2,020.5,12.1,0000.0,0000.22,0000.42,0000.14
2024-02-08 06:42:00,SystemResetWarning,0811.1,5.00,000.00,018.9,018.2,000.0,027.2,020.5,12.0,0000.0,0000.22,0000.42,0000.14
2024-02-08 06:43:00,SystemResetWarning,0811.1,5.00,000.00,018.9,018.2,000.0,027.2,020.5,12.0,0000.0,0000.21,0000.40,0000.14
2024-02-08 06:44:00,SystemResetWarning,0811.1,5.00,000.00,018.9,018.2,000.0,027.2,020.5,12.2,0000.0,0000.20,0000.40,0000.14
2024-02-08 06:45:00,SystemResetWarning,0811.1,5.00,000.00,018.9,018.2,000.0,027.2,020.5,12.8,0000.0,0000.23,0000.55,0000.14
2024-02-08 06:46:00,SystemResetWarning,0811.1,5.00,000.00,018.9,018.2,000.0,027.2,020.5,12.8,0000.0,0000.24,0000.57,0000.14
2024-02-08 06:47:00,SystemResetWarning,0811.1,5.00,000.00,018.9,018.2,000.0,027.2,020.5,13.1,0000.0,0000.23,0000.56,0000.14
2024-02-08 06:48:00,SystemResetWarning,0811.1,5.00,000.00,018.9,018.2,000.0,027.2,020.5,13.0,0000.0,0000.25,0000.60,0000.14
2024-02-08 06:49:00,SystemResetWarning,0811.0,4.99,000.00,018.9,018.2,000.0,027.2,020.5,13.5,0000.0,0000.25,0000.61,0000.14
2024-02-08 06:50:00,SystemResetWarning,0811.1,4.99,000.00,018.9,018.2,000.0,027.2,020.4,13.6,0000.0,0000.24,0000.60,0000.14
2024-02-08 06:51:00,SystemResetWarning,0811.1,5.00,000.00,018.9,018.2,000.0,027.2,020.4,13.9,0000.0,0000.24,0000.56,0000.14
2024-02-08 06:52:00,SystemResetWarning,0811.1,5.00,000.00,018.8,018.2,000.0,027.2,020.4,13.3,0000.0,0000.23,0000.75,0000.13
2024-02-08 06:53:00,SystemResetWarning,0811.1,5.00,000.00,018.8,018.2,000.0,027.2,020.4,13.2,0000.0,0000.24,0001.10,0000.13
2024-02-08 06:54:00,SystemResetWarning,0811.1,4.99,000.00,018.8,018.2,000.0,027.2,020.4,13.9,0000.0,0000.25,0001.11,0000.14
2024-02-08 06:55:00,SystemResetWarning,0811.1,5.00,000.00,018.8,018.2,000.0,027.1,020.3,13.9,0000.0,0000.25,0001.10,0000.14
2024-02-08 06:56:00,SystemResetWarning,0811.1,5.00,000.00,018.8,018.2,000.0,027.1,020.3,13.8,0000.0,0000.23,0001.42,0000.13
2024-02-08 06:57:00,SystemResetWarning,0811.1,5.00,000.00,018.8,018.2,000.0,027.1,020.3,13.9,0000.0,0000.24,0002.44,0000.14
2024-02-08 06:58:00,SystemResetWarning,0811.2,5.00,000.00,018.8,018.2,000.0,027.1,020.3,14.1,0000.0,0000.26,0002.48,0000.14
2024-02-08 06:59:00,SystemResetWarning,0811.1,5.00,000.00,018.8,018.1,000.0,027.1,020.3,14.2,0000.0,0000.27,0002.50,0000.13
